When you browse on this site, cookies collect data to enhance your experience and personalize the content and advertising you see.
Visit our Privacy Policy to learn more. By continuing to use the site, you agree to this use of cookies and data.
  • In Austria
  • List of Countries
  • For 7 days
  • Water Temperature
  • Weather Map
  • News
  • Weather Widgets
  • user-avatar
    Login

    Hourly Weather Jewłach

    Today, 26 February, Wednesday

    Time Temperature Precipitation Wind Pressure Humidity
    00:00 +5°C° 0 mm 6 mps 763 mmHg 41%
    01:00 +6°C° 0 mm 5 mps 763 mmHg 49%
    02:00 +5°C° 0 mm 3 mps 763 mmHg 58%
    03:00 +5°C° 0 mm 2 mps 763 mmHg 69%
    04:00 +5°C° 0 mm 2 mps 764 mmHg 68%
    05:00 +4°C° 0 mm 2 mps 764 mmHg 66%
    06:00 +5°C° 0 mm 1 mps 764 mmHg 65%
    07:00 +5°C° 0 mm 2 mps 765 mmHg 59%
    08:00 +7°C° 0 mm 2 mps 765 mmHg 53%
    09:00 +8°C° 0 mm 2 mps 766 mmHg 48%
    10:00 +9°C° 0 mm 2 mps 766 mmHg 43%
    11:00 +10°C° 0 mm 2 mps 765 mmHg 39%
    12:00 +10°C° 0 mm 2 mps 765 mmHg 35%
    13:00 +12°C° 0 mm 2 mps 765 mmHg 34%
    14:00 +12°C° 0 mm 2 mps 764 mmHg 33%
    15:00 +13°C° 0 mm 2 mps 764 mmHg 32%
    16:00 +12°C° 0 mm 2 mps 764 mmHg 34%
    17:00 +10°C° 0 mm 2 mps 764 mmHg 37%
    18:00 +11°C° 0 mm 1 mps 765 mmHg 39%
    19:00 +10°C° 0 mm 1 mps 765 mmHg 40%
    20:00 +9°C° 0 mm 1 mps 765 mmHg 42%
    21:00 +8°C° 0 mm 0 mps 765 mmHg 43%
    22:00 +7°C° 0 mm 0 mps 765 mmHg 45%
    23:00 +7°C° 0 mm 0 mps 765 mmHg 47%

    Tomorrow, 27 February, Thursday

    Time Temperature Precipitation Wind Pressure Humidity
    00:00 +6°C° 0 mm 0 mps 764 mmHg 50%
    01:00 +7°C° 0 mm 1 mps 764 mmHg 50%
    02:00 +7°C° 0 mm 1 mps 764 mmHg 50%
    03:00 +7°C° 0 mm 1 mps 764 mmHg 50%
    04:00 +6°C° 0 mm 1 mps 764 mmHg 50%
    05:00 +6°C° 0 mm 1 mps 763 mmHg 50%
    06:00 +6°C° 0 mm 1 mps 763 mmHg 50%
    07:00 +7°C° 0 mm 1 mps 763 mmHg 46%
    08:00 +8°C° 0 mm 1 mps 763 mmHg 42%
    09:00 +9°C° 0 mm 1 mps 763 mmHg 38%
    10:00 +11°C° 0 mm 1 mps 763 mmHg 35%
    11:00 +12°C° 0 mm 1 mps 762 mmHg 32%
    12:00 +13°C° 0 mm 1 mps 762 mmHg 29%
    13:00 +14°C° 0 mm 1 mps 761 mmHg 28%
    14:00 +14°C° 0 mm 1 mps 761 mmHg 27%
    15:00 +15°C° 0 mm 1 mps 760 mmHg 26%
    16:00 +14°C° 0 mm 1 mps 760 mmHg 29%
    17:00 +13°C° 0 mm 1 mps 760 mmHg 31%
    18:00 +12°C° 0 mm 1 mps 760 mmHg 34%
    19:00 +12°C° 0 mm 1 mps 760 mmHg 37%
    20:00 +11°C° 0 mm 1 mps 760 mmHg 39%
    21:00 +11°C° 0 mm 1 mps 760 mmHg 42%
    22:00 +10°C° 0 mm 1 mps 760 mmHg 45%
    23:00 +10°C° 0 mm 1 mps 759 mmHg 47%

    Day after tomorrow, 28 February, Friday

    Time Temperature Precipitation Wind Pressure Humidity
    00:00 +9°C° 0 mm 1 mps 759 mmHg 50%
    01:00 +9°C° 0 mm 1 mps 758 mmHg 56%
    02:00 +8°C° 0 mm 1 mps 758 mmHg 62%
    03:00 +8°C° 0 mm 1 mps 757 mmHg 68%
    04:00 +7°C° 0 mm 1 mps 757 mmHg 70%
    05:00 +6°C° 0 mm 0 mps 756 mmHg 71%
    06:00 +6°C° 0 mm 0 mps 756 mmHg 73%
    07:00 +7°C° 0 mm 0 mps 755 mmHg 67%
    08:00 +8°C° 0 mm 0 mps 755 mmHg 61%
    09:00 +9°C° 0 mm 0 mps 755 mmHg 55%
    10:00 +12°C° 0 mm 1 mps 754 mmHg 47%
    11:00 +14°C° 0 mm 2 mps 754 mmHg 40%
    12:00 +14°C° 0 mm 3 mps 753 mmHg 32%
    13:00 +16°C° 0 mm 3 mps 753 mmHg 28%
    14:00 +17°C° 0 mm 4 mps 753 mmHg 25%
    15:00 +19°C° 0 mm 5 mps 752 mmHg 22%
    16:00 +18°C° 0 mm 4 mps 753 mmHg 22%
    17:00 +17°C° 0 mm 4 mps 753 mmHg 23%
    18:00 +15°C° 0 mm 4 mps 754 mmHg 24%
    19:00 +15°C° 0 mm 6 mps 754 mmHg 26%
    20:00 +15°C° 0 mm 8 mps 755 mmHg 27%
    21:00 +14°C° 0 mm 10 mps 756 mmHg 28%
    22:00 +14°C° 0 mm 10 mps 756 mmHg 33%
    23:00 +13°C° 0 mm 11 mps 756 mmHg 38%

    29 February, Saturday

    Time Temperature Precipitation Wind Pressure Humidity
    00:00 +12°C° 0 mm 11 mps 757 mmHg 43%
    01:00 +11°C° 0 mm 9 mps 757 mmHg 45%
    02:00 +10°C° 0 mm 8 mps 758 mmHg 46%
    03:00 +10°C° 0 mm 6 mps 758 mmHg 48%
    04:00 +9°C° 0 mm 5 mps 758 mmHg 50%
    05:00 +8°C° 0 mm 4 mps 758 mmHg 52%
    06:00 +9°C° 0 mm 2 mps 759 mmHg 54%
    07:00 +10°C° 0 mm 3 mps 759 mmHg 51%
    08:00 +11°C° 0 mm 3 mps 759 mmHg 49%
    09:00 +12°C° 0 mm 3 mps 759 mmHg 46%
    10:00 +13°C° 0 mm 4 mps 758 mmHg 43%
    11:00 +14°C° 0 mm 4 mps 758 mmHg 41%
    12:00 +15°C° 0 mm 5 mps 757 mmHg 38%
    13:00 +16°C° 0 mm 6 mps 756 mmHg 39%
    14:00 +16°C° 0 mm 6 mps 756 mmHg 40%
    15:00 +16°C° 0 mm 7 mps 755 mmHg 41%
    16:00 +15°C° 0 mm 7 mps 755 mmHg 43%
    17:00 +14°C° 0 mm 6 mps 755 mmHg 45%
    18:00 +13°C° 0 mm 5 mps 755 mmHg 47%
    19:00 +12°C° 0 mm 5 mps 755 mmHg 50%
    20:00 +10°C° 0 mm 5 mps 755 mmHg 54%
    21:00 +9°C° 0 mm 5 mps 755 mmHg 57%
    22:00 +10°C° 0 mm 4 mps 755 mmHg 62%
    23:00 +9°C° 0 mm 3 mps 754 mmHg 66%

    1 March, Sunday

    Time Temperature Precipitation Wind Pressure Humidity
    00:00 +8°C° 0 mm 3 mps 754 mmHg 70%
    01:00 +8°C° 0 mm 2 mps 754 mmHg 71%
    02:00 +9°C° 0 mm 1 mps 753 mmHg 72%
    03:00 +9°C° 0 mm 1 mps 753 mmHg 73%
    04:00 +8°C° 0.3 mm 2 mps 753 mmHg 75%
    05:00 +7°C° 0.3 mm 4 mps 753 mmHg 78%
    06:00 +5°C° 0.3 mm 6 mps 754 mmHg 80%
    07:00 +6°C° 0.7 mm 7 mps 754 mmHg 77%
    08:00 +6°C° 0.7 mm 8 mps 755 mmHg 74%
    09:00 +6°C° 0.7 mm 9 mps 755 mmHg 71%
    10:00 +6°C° 0.4 mm 10 mps 756 mmHg 71%
    11:00 +6°C° 0.4 mm 11 mps 756 mmHg 71%
    12:00 +6°C° 0.4 mm 11 mps 757 mmHg 70%
    13:00 +7°C° 0.3 mm 11 mps 757 mmHg 67%
    14:00 +7°C° 0.3 mm 11 mps 757 mmHg 64%
    15:00 +7°C° 0.3 mm 11 mps 757 mmHg 61%
    16:00 +7°C° 0 mm 9 mps 758 mmHg 62%
    17:00 +8°C° 0 mm 7 mps 758 mmHg 63%
    18:00 +8°C° 0 mm 6 mps 759 mmHg 64%
    19:00 +7°C° 0.1 mm 5 mps 760 mmHg 68%
    20:00 +7°C° 0.1 mm 4 mps 761 mmHg 71%
    21:00 +8°C° 0.1 mm 3 mps 761 mmHg 75%
    22:00 +8°C° 0.3 mm 3 mps 762 mmHg 74%
    23:00 +8°C° 0.3 mm 2 mps 762 mmHg 74%

    2 March, Monday

    Time Temperature Precipitation Wind Pressure Humidity
    00:00 +7°C° 0.3 mm 2 mps 762 mmHg 74%
    01:00 +7°C° 0.1 mm 2 mps 762 mmHg 74%
    02:00 +7°C° 0.1 mm 2 mps 762 mmHg 74%
    03:00 +7°C° 0.1 mm 2 mps 763 mmHg 74%
    04:00 +6°C° 0 mm 2 mps 763 mmHg 73%
    05:00 +6°C° 0 mm 2 mps 763 mmHg 72%
    06:00 +6°C° 0 mm 2 mps 764 mmHg 71%
    07:00 +7°C° 0.1 mm 2 mps 764 mmHg 67%
    08:00 +7°C° 0.1 mm 2 mps 764 mmHg 64%
    09:00 +8°C° 0.1 mm 2 mps 764 mmHg 60%
    10:00 +9°C° 0 mm 2 mps 764 mmHg 56%
    11:00 +10°C° 0 mm 2 mps 764 mmHg 52%
    12:00 +12°C° 0 mm 2 mps 764 mmHg 47%
    13:00 +11°C° 0 mm 3 mps 764 mmHg 49%
    14:00 +11°C° 0 mm 4 mps 763 mmHg 50%
    15:00 +11°C° 0 mm 4 mps 763 mmHg 51%
    16:00 +9°C° 0 mm 5 mps 763 mmHg 59%
    17:00 +8°C° 0 mm 5 mps 764 mmHg 66%
    18:00 +7°C° 0 mm 5 mps 764 mmHg 74%
    19:00 +7°C° 0 mm 5 mps 764 mmHg 76%
    20:00 +6°C° 0 mm 4 mps 765 mmHg 77%
    21:00 +6°C° 0 mm 4 mps 765 mmHg 79%
    22:00 +5°C° 0 mm 4 mps 765 mmHg 81%
    23:00 +5°C° 0 mm 3 mps 765 mmHg 82%
    Show more